Home > Weather > Thunder Bay > Past weeks

Flag for Canada Past Weather in Thunder Bay, Ontario, Canada — Yesterday and Last 2 Weeks

Now
52 °F

Light rain. Low clouds.


Feels Like: 49 °F
Forecast: 54 / 62 °F
Wind: 7 mph from Northeast

Location: Thunder Bay

Current Time: May 27, 2016 at 8:21:50 PM

Latest Report: May 27, 2016 at 8:00 PM


Visibility: 20 mi

Pressure: 29.92 "Hg

Humidity: 94%

Dew Point: 50 °F

Location of Thunder BayLocation

Past Weather in Thunder Bay — Graph

°F

Thunder Bay Temperature Yesterday

Maximum temperature yesterday: 59 °F (at 6:00 PM)
Minimum temperature yesterday: 48 °F (at 4:00 AM)
Average temperature yesterday: 54 °F

High & Low Weather Summary for the Past Weeks

 TemperatureHumidityPressure
High82 °F (May 23, 5:00 PM)100% (May 16, 1:00 AM)30.35 "Hg (May 16, 1:00 AM)
Low28 °F (May 15, 5:00 AM)23% (May 17, 7:00 PM)29.67 "Hg (May 23, 5:00 PM)
Average52 °F67%30.01 "Hg
* Reported May 12 7:00 PM — May 27 7:00 PM, Thunder Bay, Weather by CustomWeather, © 2016

Note: Actual official high and low records may vary slightly from our data, if they occured in-between our weather recording intervals... More about our weather records

Advertising

Thunder Bay Weather History for the Previous 24 Hours

Scroll right to see more
 ConditionsComfort  
Time TempWeatherWind HumidityBarometerVisibility
7:00 PM
Fri, May 27
54 °FLight rain. Low clouds.6 mph88%29.93 "Hg20 mi
6:00 PM54 °FMore clouds than sun.8 mph82%29.93 "Hg20 mi
5:00 PM55 °FMore clouds than sun.8 mph77%29.95 "Hg20 mi
4:00 PM55 °FPartly sunny.9 mph77%29.95 "Hg20 mi
3:00 PM54 °FMore clouds than sun.7 mph82%29.95 "Hg20 mi
2:00 PM55 °FBroken clouds.9 mph77%29.93 "Hg15 mi
1:00 PM55 °FBroken clouds.10 mph82%29.94 "Hg10 mi
12:00 PM55 °FFog.8 mph88%29.93 "Hg6 mi
11:00 AM52 °FFog.3 mph100%29.94 "Hg3 mi
10:00 AM50 °FFog.5 mph100%29.93 "Hg1 mi
9:53 AM50 °FFog.8 mph100%29.93 "Hg1 mi
9:00 AM52 °FFog.3 mph94%29.91 "Hg1 mi
8:00 AM50 °FFog.No wind100%29.91 "Hg1 mi
7:00 AM50 °FFog.2 mph100%29.88 "Hg0 mi
6:00 AM50 °FFog.No wind100%29.88 "Hg0 mi
5:48 AM50 °FFog.2 mph100%29.87 "Hg1 mi
5:00 AM50 °FFog.5 mph100%29.88 "Hg1 mi
4:00 AM50 °FFog.3 mph100%29.88 "Hg1 mi
3:00 AM50 °FFog.No wind100%29.87 "Hg1 mi
2:00 AM52 °FFog.5 mph94%29.85 "Hg1 mi
1:00 AM52 °FFog.5 mph94%29.83 "Hg2 mi
12:00 AM52 °FFog.5 mph100%29.84 "Hg1 mi
11:52 PM
Thu, May 26
52 °FFog.7 mph100%29.84 "Hg1 mi
11:00 PM52 °FFog.5 mph100%29.86 "Hg1 mi
10:00 PM52 °FFog.6 mph94%29.83 "Hg5 mi
9:00 PM55 °FScattered clouds.12 mph88%29.78 "Hg15 mi
8:00 PM59 °FScattered clouds.8 mph82%29.79 "Hg15 mi
Weather by CustomWeather, © 2016

See weather overviewHow to use our weather pages